WEATHER DATA

YESTERDAY
Time Temp. Dewp. Hum. Wind dir Wind speed Wind gust Bar. 1h Prec. 24h Prec.
00:01 18.7 12.5 67 330 0.3 1.1 1018 0.0000 0.0000
00:11 18.6 12.4 67 270 0.3 0.8 1018.1 0.0000 0.0000
00:22 18.5 12.3 67 315 0.3 1.1 1018.2 0.0000 0.0000
00:32 18.4 12.2 67 315 0.3 0.8 1018.3 0.0000 0.0000
00:42 18.3 12.1 67 315 0.3 0.8 1018.2 0.0000 0.0000
00:52 18.2 12 67 341 0.3 1.1 1018.3 0.0000 0.0000
01:02 18.1 12.1 68 315 0.3 1.1 1018.2 0.0000 0.0000
01:12 18.1 12.1 68 315 0.3 0.8 1018.3 0.0000 0.0000
01:22 18 12.2 69 315 0.3 0.8 1018.2 0.0000 0.0000
01:30 17.9 12.1 69 315 0.3 0.8 1018.2 0.0000 0.0000
01:39 17.8 12 69 270 0.3 1.1 1018.2 0.0000 0.0000
01:50 17.6 12.1 70 270 0.3 0.8 1018.1 0.0000 0.0000
02:00 17.5 12 70 270 0.3 0.8 1018.1 0.0000 0.0000
02:10 17.3 11.8 70 270 0.3 1.1 1018 0.0000 0.0000
02:20 17.2 11.7 70 270 0.3 1.1 1018 0.0000 0.0000
02:30 17.1 11.8 71 270 0.3 0.8 1017.8 0.0000 0.0000
02:40 17 11.7 71 270 0.3 1.1 1017.8 0.0000 0.0000
02:50 16.9 11.6 71 270 0.3 1.1 1017.8 0.0000 0.0000
03:01 16.9 11.6 71 306 0.3 1.1 1017.7 0.0000 0.0000
03:10 16.8 11.5 71 270 0.3 1.1 1017.7 0.0000 0.0000
03:20 16.8 11.5 71 270 0.3 0.8 1017.6 0.0000 0.0000
03:30 16.7 11.4 71 270 0.3 0.8 1017.6 0.0000 0.0000
03:41 16.6 11.3 71 310 0.3 0.8 1017.7 0.0000 0.0000
03:51 16.5 11.4 72 270 0.3 1.1 1017.6 0.0000 0.0000
04:00 16.5 11.4 72 305 0.3 1.1 1017.6 0.0000 0.0000
04:11 16.4 11.3 72 270 0.3 0.8 1017.6 0.0000 0.0000
04:21 16.3 11.2 72 270 0.3 1.1 1017.7 0.0000 0.0000
04:31 16.2 11.2 72 270 0.3 1.1 1017.6 0.0000 0.0000
04:41 16.2 11.2 72 270 0.3 1.4 1017.5 0.0000 0.0000
04:51 16.1 11.3 73 270 0.3 1.1 1017.5 0.0000 0.0000
05:01 16 11.2 73 270 0.3 1.1 1017.5 0.0000 0.0000
05:11 15.9 11.1 73 270 0.3 0.8 1017.6 0.0000 0.0000
05:21 15.9 11.1 73 270 0.3 1.1 1017.4 0.0000 0.0000
05:32 15.8 11 73 270 0.3 1.1 1017.5 0.0000 0.0000
05:41 15.8 11 73 270 0.3 1.4 1017.4 0.0000 0.0000
05:51 15.7 10.9 73 270 0.3 0.8 1017.5 0.0000 0.0000
06:02 15.7 10.9 73 270 0.3 0.8 1017.5 0.0000 0.0000
06:12 15.6 10.8 73 270 0.3 1.1 1017.4 0.0000 0.0000
06:22 15.5 10.9 74 270 0.3 1.1 1017.5 0.0000 0.0000
06:32 15.5 10.9 74 270 0.3 0.8 1017.4 0.0000 0.0000
06:42 15.4 10.8 74 270 0.3 1.1 1017.4 0.0000 0.0000
06:52 15.4 10.8 74 270 0.3 1.1 1017.4 0.0000 0.0000
07:02 15.4 10.8 74 270 0.3 1.1 1017.5 0.0000 0.0000
07:13 15.4 11 75 270 0.3 1.1 1017.6 0.0000 0.0000
07:22 15.4 11 75 270 0.3 0.8 1017.8 0.0000 0.0000
07:32 15.5 11.1 75 270 0.3 1.1 1017.8 0.0000 0.0000
07:42 15.5 11.1 75 270 0.3 0.8 1017.7 0.0000 0.0000
07:53 15.6 11.4 76 270 0.3 0.8 1017.7 0.0000 0.0000
08:03 15.7 11.3 75 270 0.3 1.1 1017.6 0.0000 0.0000
08:12 15.9 11.7 76 270 0.3 0.8 1017.7 0.0000 0.0000
08:23 16.1 11.9 76 309 0.3 1.1 1017.6 0.0000 0.0000
08:33 16.3 12.1 76 270 0.3 1.1 1017.6 0.0000 0.0000
08:43 16.5 12.3 76 315 0.3 1.1 1017.5 0.0000 0.0000
08:53 16.8 12.6 76 270 0.3 1.1 1017.3 0.0000 0.0000
09:04 17 12.3 74 303 0.3 1.1 1017.6 0.0000 0.0000
09:13 17.2 12.3 73 270 0.3 1.1 1017.6 0.0000 0.0000
09:23 17.4 12.5 73 326 0.3 1.4 1017.5 0.0000 0.0000
09:34 17.6 12.5 72 320 0.3 1.1 1017.6 0.0000 0.0000
09:44 17.9 12.6 71 270 0.3 1.1 1017.4 0.0000 0.0000
09:54 18.1 12.5 70 270 0.3 1.4 1017.5 0.0000 0.0000
10:03 18.4 12.8 70 270 0.3 1.1 1017.5 0.0000 0.0000
10:14 19 12.7 67 284 0.8 1.4 1017.3 0.0000 0.0000
10:24 19.5 13 66 270 0.8 1.4 1017.2 0.0000 0.0000
10:34 20.1 13.1 64 270 0.3 1.9 1017.3 0.0000 0.0000
10:44 20.6 13.3 63 284 0.8 2.2 1017.3 0.0000 0.0000
10:54 20.8 13 61 246 0.8 2.2 1017.4 0.0000 0.0000
11:04 20.8 12.8 60 270 0.8 1.4 1017.4 0.0000 0.0000
11:14 20.6 12.6 60 270 0.3 1.4 1017.4 0.0000 0.0000
11:25 20.5 12.5 60 270 0.8 2.2 1017.4 0.0000 0.0000
11:35 20.4 12.6 61 315 0.8 1.9 1017.3 0.0000 0.0000
11:44 20.4 12.4 60 270 0.3 1.4 1017.3 0.0000 0.0000
11:54 20.5 12.5 60 281 0.8 1.4 1017.2 0.0000 0.0000
12:05 20.8 12.8 60 270 0.8 1.4 1017 0.0000 0.0000
12:15 21.3 13 59 270 0.8 2.2 1017 0.0000 0.0000
12:25 21.5 12.9 58 270 0.8 3.1 1016.8 0.0000 0.0000
12:35 21.7 12.8 57 270 0.8 1.9 1016.7 0.0000 0.0000
12:45 22.1 13.2 57 257 0.8 1.4 1016.5 0.0000 0.0000
12:55 22.5 13 55 198 0.8 1.9 1016.5 0.0000 0.0000
13:05 22.8 13.3 55 270 0.8 1.9 1016.5 0.0000 0.0000
13:16 23 13.2 54 282 0.8 1.9 1016.3 0.0000 0.0000
13:26 23.2 13.1 53 270 0.8 1.9 1016.2 0.0000 0.0000
13:35 23.3 13.5 54 270 0.8 1.4 1016.1 0.0000 0.0000
13:46 23.6 13.8 54 254 0.8 1.9 1016 0.0000 0.0000
13:56 23.7 13.6 53 270 0.3 1.9 1016 0.0000 0.0000
14:06 23.9 13.5 52 280 0.8 2.2 1016.1 0.0000 0.0000
14:16 24.1 13.6 52 270 0.3 1.1 1015.9 0.0000 0.0000
14:26 24.1 13.6 52 259 0.8 2.2 1015.8 0.0000 0.0000
14:36 24.2 13.7 52 288 0.8 1.9 1015.6 0.0000 0.0000
14:46 24.3 13.5 51 260 0.8 1.4 1015.6 0.0000 0.0000
14:56 24.4 13.6 51 270 0.8 1.9 1015.6 0.0000 0.0000
15:07 24.5 13.7 51 45 0.8 1.9 1015.4 0.0000 0.0000
15:16 24.6 13.8 51 270 0.8 1.9 1015.3 0.0000 0.0000
15:26 24.7 13.6 50 270 0.3 1.4 1015.2 0.0000 0.0000
15:37 24.8 14 51 258 0.8 1.4 1015 0.0000 0.0000
15:47 24.8 14 51 270 0.3 1.4 1015 0.0000 0.0000
15:57 24.8 14 51 270 0.3 1.4 1014.7 0.0000 0.0000
16:07 24.9 13.8 50 299 0.8 2.2 1014.6 0.0000 0.0000
16:17 24.9 14.1 51 270 0.3 1.4 1014.5 0.0000 0.0000
16:27 25 13.9 50 270 0.8 1.4 1014.6 0.0000 0.0000
16:37 25 14.2 51 270 0.3 1.4 1014.5 0.0000 0.0000
16:48 25 13.9 50 243 0.8 1.9 1014.5 0.0000 0.0000
16:58 25 14.2 51 270 0.8 1.9 1014.3 0.0000 0.0000
17:08 25 14.2 51 270 0.8 1.9 1014.1 0.0000 0.0000
17:17 25 14.2 51 270 0.3 1.9 1014.1 0.0000 0.0000
17:28 24.9 14.1 51 324 0.8 2.5 1014.1 0.0000 0.0000
17:38 24.9 14.4 52 251 0.8 1.4 1013.8 0.0000 0.0000
17:48 24.9 14.4 52 270 0.3 2.2 1014 0.0000 0.0000
17:58 24.8 14.3 52 270 0.3 1.9 1013.8 0.0000 0.0000
18:09 24.7 14.2 52 251 0.8 3.1 1013.9 0.0000 0.0000
18:18 24.6 14.4 53 229 0.8 1.4 1013.8 0.0000 0.0000
18:28 24.6 14.4 53 244 0.8 2.2 1013.6 0.0000 0.0000
18:39 24.5 14.3 53 243 0.8 1.9 1013.6 0.0000 0.0000
18:49 24.4 14.2 53 270 0.8 2.2 1013.7 0.0000 0.0000
18:59 24.3 14.4 54 285 0.8 2.2 1013.6 0.0000 0.0000
19:09 24.2 14.3 54 250 0.8 2.2 1013.5 0.0000 0.0000
19:19 24.1 14.5 55 270 0.8 1.9 1013.5 0.0000 0.0000
19:29 24 14.4 55 280 0.8 1.4 1013.4 0.0000 0.0000
19:39 23.9 14.3 55 270 0.3 1.4 1013.6 0.0000 0.0000
19:50 23.8 14.5 56 259 0.8 1.9 1013.5 0.0000 0.0000
20:00 23.7 14.4 56 270 0.3 1.4 1013.6 0.0000 0.0000
20:09 23.6 14.6 57 270 0.3 1.1 1013.4 0.0000 0.0000
20:19 23.5 14.5 57 270 0.3 1.4 1013.5 0.0000 0.0000
20:30 23.3 14.6 58 270 0.3 1.1 1013.5 0.0000 0.0000
20:40 23.2 14.8 59 270 0.3 1.1 1013.6 0.0000 0.0000
20:50 23 14.6 59 270 0.3 1.1 1013.7 0.0000 0.0000
21:10 22.8 14.4 59 270 0.3 1.4 1013.7 0.0000 0.0000
21:20 22.7 14.5 60 270 0.3 1.1 1013.8 0.0000 0.0000
21:30 22.5 14.4 60 270 0.3 1.1 1013.8 0.0000 0.0000
21:41 22.4 14.3 60 270 0.3 1.1 1013.7 0.0000 0.0000
21:51 22.3 14.4 61 270 0.3 1.1 1013.7 0.0000 0.0000
22:00 22.1 14.5 62 270 0.3 1.1 1013.6 0.0000 0.0000
22:10 21.9 14.3 62 270 0.3 1.1 1013.8 0.0000 0.0000
22:21 21.8 14.5 63 270 0.3 0.8 1013.8 0.0000 0.0000
22:31 21.7 14.4 63 270 0.3 1.4 1014 0.0000 0.0000
22:41 21.5 14.2 63 270 0.3 1.4 1013.9 0.0000 0.0000
22:52 21.4 14.3 64 270 0.3 0.8 1014 0.0000 0.0000
23:01 21.4 14.3 64 270 0.3 0.8 1014 0.0000 0.0000
23:11 21.3 14.5 65 304 0.3 0.8 1013.9 0.0000 0.0000
23:21 21.1 14.5 66 270 0.3 1.1 1014 0.0000 0.0000
23:32 20.9 14.3 66 309 0.3 0.8 1014.1 0.0000 0.0000
23:42 20.7 14.4 67 302 0.3 0.8 1014.2 0.0000 0.0000
23:51 20.5 14.4 68 270 0.3 1.1 1014 0.0000 0.0000

DAY STATISTIC

2018-08-19
TEMPERATURE
AVERAGE
20.3
HIGH
25.0
16:27
LOW
15.4
06:42
PRESSURE
AVERAGE
1016.1
HIGH
1018.3
00:32
LOW
1013.4
19:29
DEWPOINT
AVERAGE
12.9
HIGH
14.8
20:40
LOW
10.8
06:12
HUMIDITY
AVERAGE
63
HIGH
76
07:53
LOW
50
15:26
WIND SPEED
AVERAGE
0.5
HIGH
0.8
10:14
WIND GUST
AVERAGE
1.4
HIGH
3.1
12:25
WIND DIRECTION
PREVAILING
W
78.9%
N
0.7
NE
0.7
E
0.0
SE
0.0
S
0.7
SW
3.5
W
78.9
NW
15.5
PRECIPITATION
RAIN HOUR
0.0
RAIN DAY
0.0
TEMPERATURE (°C)
LOW
15.4
HIGH
25.0
AVERAGE
20.3
PRESSURE (hpa)
LOW
1013.4
HIGH
1018.3
AVERAGE
1016.1
DEVICE